Погода в Колышлее

Россия / Пензенская область     52°41′51″N   44°31′51″E
темп.,
°C
ветер,
м/с
пор.,
м/с
влажн.,
%
обл.,
%
осадки,
мм/ч
давл.,
гПа
погр.,
м
16 апреля, пт
пт1600:00+13юв3355100 0.0 101632
03:00+11вюв2261100 0.0 101617
06:00+10в3463100 0.0 101668
09:00+14вюв3550100 0.0 1017262
12:00+18вюв3537100 0.0 1017832
15:00+20вюв453352 0.0 10171691
18:00+17вюв474798 0.0 1018175
21:00+14вюв3557100 0.0 101866
17 апреля, сб
сб1700:00+11в4863100 0.0 1019132
03:00+10в3669100 0.0 102096
06:00+9в487495 0.0 1020133
09:00+15вюв695430 0.0 1019487
12:00+19вюв893796 0.0 10192577
15:00+20юв7931100 0.0 10182744
18:00+12юз7976100 0.2 1019392
21:00+10зсз3390100 3.6 1021117
18 апреля, вс
вс1800:00+10ссв3495100 6.5 1020235
03:00+9ссз3597100 13.3 1020342
06:00+9ссв1498100 8.4 1019317
09:00+9вюв2494100 8.9 1019339
12:00+11з238378 0.2 1020547
15:00+13ссз336697 0.4 1020998
18:00+11св458226 0.1 1020286
21:00+8св3493100 0.2 1021113
19 апреля, пн
пн1900:00+8св348798 0.0 1021123
03:00+8всв3693100 0.0 1021170
06:00+7всв3992100 0.0 1022250
09:00+8в51181100 0.0 1023556
12:00+10в7975100 0.0 1023903
15:00+8вюв51270100 0.1 1023754
18:00+9в51271100 0.0 1023690
21:00+8вюв61374100 0.0 1024765
20 апреля, вт
вт2000:00+7в81575100 0.0 1023673
03:00+6в8158498 0.0 1023706
06:00+5вюв91686100 0.0 1022687
09:00+6вюв101878100 0.0 1021766
12:00+6вюв111972100 0.0 1019791
15:00+8вюв121968100 0.0 1018951
18:00+6вюв112183100 2.4 1018899
21:00+7юв91886100 9.7 1018991